Location: Ozark
(37.5425°N, 88.7628°W)
Time: 20:00:51
(UTC+00:00)

ATLAS 3B R/B - Pass Details

Date: 26 January 2020
Orbit: 1027 x 1168 km, 63.8° (Epoch: 09 February)

Event Time Altitude Azimuth Distance (km) Brightness Sun altitude
Exits shadow 12:04:06 - 321° (NW) 3,095 4.6 -12.0°
Reaches altitude 10° 12:04:41 10° 320° (NW) 2,890 4.5 -11.8°
Maximum altitude 12:11:21 57° 244° (WSW) 1,259 2.9 -10.6°
Drops below altitude 10° 12:18:14 10° 167° (SSE) 2,975 5.5 -9.3°
Sets 12:20:59 0° 163° (SSE) 3,950 6.2 -8.7°
